GW6878 Weather Reports


time (UTC)temp
F
wind
direction
speed
knots
gust
knots
rain 1hr
in
rain 24hr
in
rain mn
in
humidity
%
barometer
mb
20260502164003 57 256 0.9 2.6 0.00 0.00 0.00 51 1013.8
20260502163503 56 236 0.9 2.6 0.00 0.00 0.00 52 1013.8
20260502163003 56 228 1.7 4.3 0.00 0.00 0.00 51 1013.8
20260502162503 57 236 2.6 4.3 0.00 0.00 0.00 50 1013.8
20260502162003 58 238 2.6 4.3 0.00 0.00 0.00 49 1013.7
20260502161717 57 238 2.6 4.3 0.00 0.00 0.00 50 1013.7
20260502161003 57 240 2.6 4.3 0.00 0.00 0.00 51 1013.7
20260502160503 58 232 1.7 4.3 0.00 0.00 0.00 53 1013.6
20260502152003 53 244 0.0 1.7 0.00 0.00 0.00 62 1013.4
20260502151503 53 256 0.9 1.7 0.00 0.00 0.00 62 1013.3
20260502151003 54 289 0.9 1.7 0.00 0.00 0.00 59 1013.4
20260502150719 54 313 0.9 1.7 0.00 0.00 0.00 58 1013.4
20260502130503 51 331 0.9 1.7 0.00 0.00 0.00 62 1012.9
20260502123503 50 35 1.7 2.6 0.00 0.00 0.00 69 1012.9
20260502123003 50 38 1.7 1.7 0.00 0.00 0.00 68 1013.0
20260502122718 50 38 1.7 1.7 0.00 0.00 0.00 68 1013.0
20260502122003 51 51 0.9 1.7 0.00 0.00 0.00 67 1013.1
20260502121503 52 76 0.9 1.7 0.00 0.00 0.00 66 1013.1
20260502121003 52 100 0.9 1.7 0.00 0.00 0.00 66 1013.1
20260502120503 52 124 0.0 1.7 0.00 0.00 0.00 65 1013.2
20260502115715 53 119 0.9 1.7 0.00 0.00 0.00 64 1013.4
20260502115216 53 98 0.9 1.7 0.00 0.00 0.00 64 1013.3
20260502114503 53 61 0.9 1.7 0.00 0.00 0.00 64 1013.3
20260502114003 52 59 0.9 0.9 0.00 0.00 0.00 64 1013.2
20260502113719 52 59 0.9 1.7 0.00 0.00 0.00 64 1013.1
20260502113003 52 59 0.9 1.7 0.00 0.00 0.00 63 1013.0
20260502112503 52 59 0.9 1.7 0.00 0.00 0.00 62 1013.1
20260502112003 52 63 0.9 1.7 0.00 0.00 0.00 61 1013.1
20260502111503 52 69 0.9 1.7 0.00 0.00 0.00 60 1013.2
20260502111003 52 61 0.9 1.7 0.00 0.00 0.00 60 1013.3
20260502110503 52 53 0.9 1.7 0.00 0.00 0.00 61 1013.3
20260502110003 52 58 1.7 2.6 0.00 0.00 0.00 62 1013.3
20260502105503 51 58 1.7 2.6 0.00 0.00 0.00 64 1013.2
20260502105003 51 53 1.7 2.6 0.00 0.00 0.00 65 1013.3
20260502104503 51 57 1.7 2.6 0.00 0.00 0.00 64 1013.3
20260502104003 51 65 1.7 2.6 0.00 0.00 0.00 63 1013.3
20260502103503 51 63 1.7 3.5 0.00 0.00 0.00 62 1013.3
20260502103003 51 65 2.6 3.5 0.00 0.00 0.00 61 1013.4
20260502102503 52 68 2.6 3.5 0.00 0.00 0.00 60 1013.4
20260502102003 52 69 1.7 2.6 0.00 0.00 0.00 60 1013.4
20260502101503 51 68 1.7 2.6 0.00 0.00 0.00 60 1013.3
20260502101003 51 64 1.7 2.6 0.00 0.00 0.00 60 1013.3
20260502100503 51 64 1.7 2.6 0.00 0.00 0.00 60 1013.3
20260502091503 56 0 0.0 0.0 0.00 0.00 0.00 52 1013.5
20260502091003 56 128 0.0 0.9 0.00 0.00 0.00 48 1013.6
20260502090503 55 128 0.9 1.7 0.00 0.00 0.00 48 1013.6
20260502071003 58 145 0.0 1.7 0.00 0.00 0.00 41 1014.2
20260502070503 58 136 0.0 1.7 0.00 0.00 0.00 40 1014.2
20260502070217 58 122 0.0 1.7 0.00 0.00 0.00 40 1014.2
20260502065718 58 105 0.9 1.7 0.00 0.00 0.00 40 1014.1
20260502065003 58 80 1.7 2.6 0.00 0.00 0.00 41 1014.1
20260502064503 58 76 1.7 5.2 0.00 0.00 0.00 41 1014.1
20260502064003 58 86 1.7 5.2 0.00 0.00 0.00 40 1014.1
20260502063503 58 93 1.7 4.3 0.00 0.00 0.00 39 1014.2
20260502063003 58 100 1.7 4.3 0.00 0.00 0.00 39 1014.2
20260502062503 59 111 1.7 3.5 0.00 0.00 0.00 39 1014.2
20260502062003 59 114 1.7 3.5 0.00 0.00 0.00 39 1014.2
20260502061503 59 126 0.9 3.5 0.00 0.00 0.00 39 1014.2
20260502061003 58 164 0.9 1.7 0.00 0.00 0.00 40 1014.3
20260502060503 58 170 0.9 1.7 0.00 0.00 0.00 40 1014.3
20260502060003 59 187 0.9 2.6 0.00 0.00 0.00 39 1014.4
20260502055503 60 212 1.7 4.3 0.00 0.00 0.00 38 1014.4
20260502055003 60 229 1.7 4.3 0.00 0.00 0.00 38 1014.4
20260502054503 60 239 1.7 3.5 0.00 0.00 0.00 38 1014.4
20260502054216 60 235 0.9 2.6 0.00 0.00 0.00 38 1014.4
20260502053503 60 246 1.7 3.5 0.00 0.00 0.00 38 1014.4
20260502053003 60 267 1.7 3.5 0.00 0.00 0.00 37 1014.4
20260502052719 60 279 1.7 3.5 0.00 0.00 0.00 37 1014.4
20260502052003 60 268 1.7 4.3 0.00 0.00 0.00 36 1014.4
20260502051717 60 260 1.7 4.3 0.00 0.00 0.00 36 1014.4
20260502051003 60 246 0.9 3.5 0.00 0.00 0.00 36 1014.3
20260502050503 60 240 0.9 1.7 0.00 0.00 0.00 36 1014.2
20260502050003 60 130 0.0 1.7 0.00 0.00 0.00 36 1014.2
20260502045717 60 149 0.0 1.7 0.00 0.00 0.00 36 1014.1
20260502045003 60 165 0.9 1.7 0.00 0.00 0.00 36 1014.0
20260502044504 60 167 0.9 1.7 0.00 0.00 0.00 35 1013.8
20260502044003 61 179 0.9 3.5 0.00 0.00 0.00 35 1013.9
20260502043503 60 172 0.9 3.5 0.00 0.00 0.00 35 1013.8
20260502043003 61 165 0.9 2.6 0.00 0.00 0.00 35 1013.8
20260502042503 61 174 0.9 1.7 0.00 0.00 0.00 35 1013.8
20260502042003 61 202 0.0 1.7 0.00 0.00 0.00 35 1013.8
20260502041503 61 222 0.0 0.9 0.00 0.00 0.00 35 1013.8
20260502041003 61 226 0.0 1.7 0.00 0.00 0.00 34 1013.7
20260502040503 62 224 0.9 2.6 0.00 0.00 0.00 34 1013.8
20260502040003 63 198 0.9 2.6 0.00 0.00 0.00 33 1013.8
20260502035716 63 178 1.7 5.2 0.00 0.00 0.00 34 1013.8
20260502035003 63 203 2.6 6.1 0.00 0.00 0.00 33 1013.7
20260502034718 63 216 1.7 6.1 0.00 0.00 0.00 33 1013.6
20260502034003 62 222 1.7 4.3 0.00 0.00 0.00 34 1013.5
20260502033716 62 230 1.7 4.3 0.00 0.00 0.00 34 1013.5
20260502033217 62 255 1.7 4.3 0.00 0.00 0.00 34 1013.4
20260502032503 63 240 0.9 2.6 0.00 0.00 0.00 34 1013.4
20260502032003 63 237 0.9 2.6 0.00 0.00 0.00 35 1013.4
20260502031716 63 240 0.9 2.6 0.00 0.00 0.00 35 1013.4
20260502031003 63 253 0.9 3.5 0.00 0.00 0.00 35 1013.3
20260502030718 64 261 0.9 3.5 0.00 0.00 0.00 34 1013.3
20260502030003 64 261 2.6 6.1 0.00 0.00 0.00 34 1013.4
20260502025503 64 259 2.6 7.8 0.00 0.00 0.00 34 1013.4
20260502025217 64 259 2.6 7.8 0.00 0.00 0.00 34 1013.3
20260502024503 64 247 3.5 8.7 0.00 0.00 0.00 35 1013.2
20260502024003 65 243 3.5 7.0 0.00 0.00 0.00 35 1013.2
20260502023503 65 242 3.5 7.0 0.00 0.00 0.00 34 1013.2
20260502023003 65 243 4.3 9.6 0.00 0.00 0.00 35 1013.1
20260502022504 65 246 4.3 9.6 0.00 0.00 0.00 34 1013.1
20260502022003 65 250 3.5 7.0 0.00 0.00 0.00 35 1013.1
20260502021503 65 250 3.5 7.0 0.00 0.00 0.00 37 1013.1
20260502021003 65 244 3.5 6.1 0.00 0.00 0.00 36 1013.1
20260502020718 65 242 3.5 7.0 0.00 0.00 0.00 37 1013.2
20260502020003 66 244 3.5 7.8 0.00 0.00 0.00 36 1013.2
20260502015503 66 241 3.5 7.8 0.00 0.00 0.00 36 1013.1
20260502015003 66 237 4.3 7.0 0.00 0.00 0.00 36 1013.2
20260502014503 66 236 4.3 7.0 0.00 0.00 0.00 36 1013.2
20260502014003 67 234 4.3 7.0 0.00 0.00 0.00 36 1013.3
20260502013503 67 231 4.3 7.8 0.00 0.00 0.00 35 1013.3
20260502013003 67 232 4.3 7.8 0.00 0.00 0.00 34 1013.3
20260502012503 68 233 4.3 7.8 0.00 0.00 0.00 34 1013.4
20260502012003 68 231 4.3 7.0 0.00 0.00 0.00 33 1013.3
20260502011503 68 226 5.2 8.7 0.00 0.00 0.00 32 1013.4
20260502011003 69 222 6.1 10.4 0.00 0.00 0.00 32 1013.5
20260502010503 69 220 7.0 10.4 0.00 0.00 0.00 31 1013.5
20260502010003 69 220 7.0 12.2 0.00 0.00 0.00 30 1013.5
20260502005503 70 222 7.0 13.0 0.00 0.00 0.00 31 1013.5
20260502005003 70 218 7.0 13.0 0.00 0.00 0.00 31 1013.5
20260502004503 70 218 6.1 13.0 0.00 0.00 0.00 30 1013.6
20260502004003 71 220 6.1 9.6 0.00 0.00 0.00 31 1013.6
20260502003503 70 222 6.1 10.4 0.00 0.00 0.00 29 1013.7
20260502003003 71 216 7.0 12.2 0.00 0.00 0.00 28 1013.7
20260502002503 71 210 6.1 12.2 0.00 0.00 0.00 29 1013.7
20260502002003 72 204 5.2 9.6 0.00 0.00 0.00 28 1013.8
20260502001503 71 205 4.3 8.7 0.00 0.00 0.00 26 1013.8
20260502001216 72 210 4.3 8.7 0.00 0.00 0.00 26 1013.8
20260502000717 71 201 4.3 7.0 0.00 0.00 0.00 27 1013.8
20260502000218 71 184 5.2 11.3 0.00 0.00 0.00 26 1013.8
20260501235503 71 186 3.5 11.3 0.00 0.00 0.00 25 1013.8
20260501235003 71 190 3.5 9.6 0.00 0.00 0.00 26 1013.8
20260501234717 71 187 4.3 10.4 0.00 0.00 0.00 25 1013.9
20260501234003 73 197 5.2 10.4 0.00 0.00 0.00 25 1014.0
20260501233503 72 187 5.2 10.4 0.00 0.00 0.00 25 1014.0
20260501233003 72 180 5.2 8.7 0.00 0.00 0.00 25 1014.1
20260501232503 72 179 4.3 7.8 0.00 0.00 0.00 24 1014.2
20260501232003 72 173 4.3 9.6 0.00 0.00 0.00 25 1014.2
20260501231503 73 173 5.2 9.6 0.00 0.00 0.00 25 1014.2
20260501231003 73 168 4.3 9.6 0.00 0.00 0.00 25 1014.2
20260501230504 73 163 5.2 10.4 0.00 0.00 0.00 25 1014.3
20260501230218 72 168 5.2 10.4 0.00 0.00 0.00 26 1014.3
20260501225503 73 171 4.3 9.6 0.00 0.00 0.00 24 1014.4
20260501225003 73 172 5.2 9.6 0.00 0.00 0.00 24 1014.5
20260501224503 73 181 5.2 9.6 0.00 0.00 0.00 24 1014.5
20260501224218 72 178 5.2 10.4 0.00 0.00 0.00 24 1014.6
20260501223503 73 164 4.3 10.4 0.00 0.00 0.00 24 1014.8
20260501223003 73 156 3.5 12.2 0.00 0.00 0.00 23 1014.8
20260501222503 74 183 4.3 12.2 0.00 0.00 0.00 23 1014.9
20260501222003 73 215 5.2 11.3 0.00 0.00 0.00 24 1015.0
20260501221503 73 214 5.2 11.3 0.00 0.00 0.00 24 1015.0
20260501221003 73 188 4.3 10.4 0.00 0.00 0.00 23 1015.0
20260501220503 72 172 3.5 7.0 0.00 0.00 0.00 24 1015.1
20260501220003 73 197 3.5 7.0 0.00 0.00 0.00 24 1015.1
20260501215503 73 209 4.3 11.3 0.00 0.00 0.00 24 1015.2
20260501215003 74 195 5.2 11.3 0.00 0.00 0.00 24 1015.4
20260501214503 72 167 3.5 7.8 0.00 0.00 0.00 25 1015.5
20260501214003 71 157 3.5 7.8 0.00 0.00 0.00 24 1015.5
20260501213503 72 167 6.1 13.0 0.00 0.00 0.00 24 1015.6
20260501213003 72 173 6.1 13.0 0.00 0.00 0.00 24 1015.6
20260501212503 71 171 4.3 9.6 0.00 0.00 0.00 24 1015.7
20260501212003 71 178 4.3 8.7 0.00 0.00 0.00 23 1015.7
20260501211503 72 197 5.2 11.3 0.00 0.00 0.00 25 1015.9
20260501211003 72 185 5.2 11.3 0.00 0.00 0.00 23 1015.9
20260501210503 71 154 4.3 11.3 0.00 0.00 0.00 25 1015.9
20260501210003 71 162 3.5 9.6 0.00 0.00 0.00 25 1016.1
20260501205503 71 168 3.5 10.4 0.00 0.00 0.00 24 1015.9
20260501205003 72 152 4.3 10.4 0.00 0.00 0.00 24 1016.1
20260501204503 72 154 3.5 9.6 0.00 0.00 0.00 24 1016.1
20260501204003 71 176 4.3 10.4 0.00 0.00 0.00 25 1016.1
20260501203504 73 167 4.3 10.4 0.00 0.00 0.00 23 1016.2
20260501203003 72 140 3.5 9.6 0.00 0.00 0.00 24 1016.2
20260501202503 70 154 3.5 10.4 0.00 0.00 0.00 26 1016.2
20260501202003 71 170 4.3 12.2 0.00 0.00 0.00 24 1016.3
20260501201503 71 169 4.3 12.2 0.00 0.00 0.00 24 1016.3
20260501201003 70 166 4.3 11.3 0.00 0.00 0.00 25 1016.3
20260501200503 72 181 4.3 11.3 0.00 0.00 0.00 24 1016.4
20260501200003 72 174 4.3 10.4 0.00 0.00 0.00 23 1016.4
20260501195503 72 164 5.2 10.4 0.00 0.00 0.00 24 1016.5
20260501195003 72 181 5.2 9.6 0.00 0.00 0.00 24 1016.4
20260501194503 71 181 6.1 11.3 0.00 0.00 0.00 24 1016.4
20260501194003 71 180 6.1 11.3 0.00 0.00 0.00 24 1016.5
20260501193503 72 191 6.1 12.2 0.00 0.00 0.00 25 1016.5
20260501193003 70 186 5.2 12.2 0.00 0.00 0.00 24 1016.5
20260501192503 71 169 5.2 11.3 0.00 0.00 0.00 26 1016.6
20260501192003 70 168 5.2 11.3 0.00 0.00 0.00 24 1016.7
20260501191503 71 181 6.1 9.6 0.00 0.00 0.00 24 1016.8
20260501191003 71 182 5.2 11.3 0.00 0.00 0.00 24 1016.8
20260501190503 71 169 6.1 16.5 0.00 0.00 0.00 25 1016.8
20260501190003 70 173 7.0 16.5 0.00 0.00 0.00 26 1016.8
20260501185503 72 181 7.0 13.0 0.00 0.00 0.00 25 1016.8
20260501185003 71 178 5.2 13.0 0.00 0.00 0.00 25 1016.8
20260501184504 71 177 5.2 8.7 0.00 0.00 0.00 27 1016.9
20260501184216 71 182 6.1 10.4 0.00 0.00 0.00 27 1016.9
20260501183717 70 178 5.2 13.9 0.00 0.00 0.00 28 1016.8
20260501183003 68 184 6.1 13.9 0.00 0.00 0.00 27 1016.9
20260501182503 70 199 5.2 10.4 0.00 0.00 0.00 27 1017.0
20260501182003 69 196 5.2 12.2 0.00 0.00 0.00 27 1017.0
20260501181503 70 178 5.2 12.2 0.00 0.00 0.00 27 1017.0
20260501181218 69 171 6.1 12.2 0.00 0.00 0.00 28 1017.0
20260501180503 68 164 5.2 12.2 0.00 0.00 0.00 28 1017.1
20260501180003 68 170 5.2 9.6 0.00 0.00 0.00 28 1017.1
20260501175503 68 179 6.1 12.2 0.00 0.00 0.00 27 1017.1
20260501175003 67 171 5.2 12.2 0.00 0.00 0.00 26 1017.1
20260501174503 68 165 5.2 10.4 0.00 0.00 0.00 27 1017.2
20260501174003 68 171 5.2 10.4 0.00 0.00 0.00 28 1017.2
20260501173503 67 169 6.1 12.2 0.00 0.00 0.00 28 1017.3
20260501173003 66 169 7.0 17.4 0.00 0.00 0.00 28 1017.3
20260501172503 66 172 7.0 17.4 0.00 0.00 0.00 28 1017.3
20260501172003 67 171 6.1 13.0 0.00 0.00 0.00 28 1017.2
20260501171503 66 166 4.3 13.0 0.00 0.00 0.00 30 1017.3
20260501171003 65 154 2.6 6.1 0.00 0.00 0.00 32 1017.2
20260501170718 64 157 1.7 6.1 0.00 0.00 0.00 31 1017.3
20260501170003 64 215 1.7 4.3 0.00 0.00 0.00 32 1017.3
20260501165503 64 219 2.6 5.2 0.00 0.00 0.00 35 1017.3
20260501165003 63 196 3.5 6.1 0.00 0.00 0.00 34 1017.2